(122542) = 2000 QJ222

Discovered at Anderson Mesa on 2000-08-21 by LONEOS.

Orbit

Orbit type: Phocaea

Note: WebGL enabled browser required.

epoch2024-03-31.0
epoch JD2460400.5
perihelion date2023-11-15.75978
perihelion JD2460264.25978
argument of perihelion (°)33.21648
ascending node (°)13.33139
inclination (°)12.17506
eccentricity0.1763203
perihelion distance (AU)1.9952401
Tisserand w.r.t. Jupiter3.5
ΔV w.r.t. Earth (km/sec)9.6
semimajor axis (AU)2.4223496
mean anomaly (°)35.61672
mean daily motion (°/day)0.26142590
aphelion distance (AU)2.849
period (years)3.77
P-vector [x]0.69058936
P-vector [y]0.60908967
P-vector [z]0.38999502
Q-vector [x]-0.72161034
Q-vector [y]0.54401381
Q-vector [z]0.42816760
absolute magnitude15.47
phase slope0.15
uncertainty0
referenceMPEC 2024-F62
observations used1584
oppositions14
arc length (days)8612
first opposition used2000
last opposition used2024
residual rms (arc-secs)0.64
perturbers coarse indicatorM-v
perturbers precise indicator003Ek
first observation date used2000-08-21.0
last observation date used2024-03-20.0
computer nameMPCLINUX
JD of orbit computation2456819.383880
perihelion JD uncertainty (days)5.4374E-05
argument of perihelion uncertainty (°)2.2484E-05
ascending node uncertainty (°)1.7530E-05
inclination uncertainty (°)5.1357E-06
eccentricity uncertainty 6.2444E-08
perihelion distance uncertainty (AU)1.4200E-07
Minimum Orbit Intersection Distances (in AU)
for orbit epoch: 2460400.5, reference: E2024-GB3
Mercury1.67914
Venus1.28319
Earth1.01405
Mars0.56593
Jupiter2.61342
Saturn6.82585
Uranus15.7647
Neptune27.7814

Observations

1608 total observations over interval: 2000 08 21.34149 – 2024 03 20.127471
These data are available for download (format description).

Date (UT) J2000 RA J2000 Dec Magn Location Ref
2000 08 21.34149 22 41 11.85 -24 38 07.5 18.1 R 699 – Lowell Observatory-LONEOS MPS 18398
2000 08 21.36274 22 41 10.32 -24 38 09.5   699 – Lowell Observatory-LONEOS MPS 18398
2000 08 21.38396 22 41 08.96 -24 38 12.3   699 – Lowell Observatory-LONEOS MPS 18398
2000 08 21.40523 22 41 07.47 -24 38 14.1   699 – Lowell Observatory-LONEOS MPS 18398
2000 08 26.32964 22 35 33.88 -24 46 19.5 17.5   704 – Lincoln Laboratory ETS, New Mexico MPS 18398
2000 08 26.34597 22 35 32.76 -24 46 20.9 17.3   704 – Lincoln Laboratory ETS, New Mexico MPS 18398
2000 08 26.36480 22 35 31.39 -24 46 22.3 17.5   704 – Lincoln Laboratory ETS, New Mexico MPS 18398
2000 08 26.38136 22 35 30.24 -24 46 21.9 18.2   704 – Lincoln Laboratory ETS, New Mexico MPS 18398
2000 09 20.18964 22 09 04.32 -24 00 20.4 19.0   704 – Lincoln Laboratory ETS, New Mexico MPS 19486
2000 09 20.20461 22 09 03.52 -24 00 15.8 19.1   704 – Lincoln Laboratory ETS, New Mexico MPS 19486
2000 09 20.21982 22 09 02.74 -24 00 12.5 19.1   704 – Lincoln Laboratory ETS, New Mexico MPS 19486
2000 09 20.23492 22 09 01.94 -24 00 07.4 19.0   704 – Lincoln Laboratory ETS, New Mexico MPS 19486
2000 09 20.25008 22 09 01.13 -24 00 03.4 19.2   704 – Lincoln Laboratory ETS, New Mexico MPS 19486
2000 09 21.19384 22 08 15.02 -23 55 17.0 18.3   704 – Lincoln Laboratory ETS, New Mexico MPS 19486
2000 09 21.20861 22 08 14.36 -23 55 13.6 19.1   704 – Lincoln Laboratory ETS, New Mexico MPS 19486
2000 09 21.23810 22 08 12.80 -23 55 01.5 19.2   704 – Lincoln Laboratory ETS, New Mexico MPS 19486
2000 09 21.25291 22 08 12.00 -23 54 57.6 19.4   704 – Lincoln Laboratory ETS, New Mexico MPS 19486
2000 09 30.23267 22 02 16.95 -22 59 56.5 18.2 R 699 – Lowell Observatory-LONEOS MPS 25146
2000 09 30.24306 22 02 16.60 -22 59 51.3   699 – Lowell Observatory-LONEOS MPS 25146
2000 09 30.25350 22 02 16.24 -22 59 47.4   699 – Lowell Observatory-LONEOS MPS 25146
2000 09 30.26393 22 02 15.92 -22 59 42.7   699 – Lowell Observatory-LONEOS MPS 25146
2001 12 21.44109 11 09 17.87 +19 41 05.6 19.1   704 – Lincoln Laboratory ETS, New Mexico MPS 48988
2001 12 21.48670 11 09 19.18 +19 41 05.4 19.4   704 – Lincoln Laboratory ETS, New Mexico MPS 48988
2001 12 21.50196 11 09 19.64 +19 41 05.0 19.7   704 – Lincoln Laboratory ETS, New Mexico MPS 48988
2002 01 23.31269 11 08 57.25 +20 49 02.2 18.9   704 – Lincoln Laboratory ETS, New Mexico MPS 48988
2002 01 23.32730 11 08 56.73 +20 49 05.5 19.2   704 – Lincoln Laboratory ETS, New Mexico MPS 48988
2002 01 23.34191 11 08 56.20 +20 49 09.6 19.3   704 – Lincoln Laboratory ETS, New Mexico MPS 48988
2002 01 23.35714 11 08 55.66 +20 49 12.9 19.3   704 – Lincoln Laboratory ETS, New Mexico MPS 48988
2002 01 23.37175 11 08 55.15 +20 49 15.7 19.6   704 – Lincoln Laboratory ETS, New Mexico MPS 48988
2002 02 08.28546 10 56 18.07 +21 54 36.2 18.4 R 699 – Lowell Observatory-LONEOS MPS 48988
2002 02 08.31194 10 56 16.38 +21 54 41.9   699 – Lowell Observatory-LONEOS MPS 48988
2002 02 08.33841 10 56 14.73 +21 54 48.1   699 – Lowell Observatory-LONEOS MPS 48988
2002 02 08.36490 10 56 13.08 +21 54 55.1   699 – Lowell Observatory-LONEOS MPS 48988
2002 02 10.32096 10 54 13.23 +22 02 24.2 18.7   704 – Lincoln Laboratory ETS, New Mexico MPS 48988
2002 02 10.33524 10 54 12.29 +22 02 27.6 19.2   704 – Lincoln Laboratory ETS, New Mexico MPS 48988
2002 02 10.34953 10 54 11.36 +22 02 31.0 19.2   704 – Lincoln Laboratory ETS, New Mexico MPS 48988
2002 02 10.36481 10 54 10.38 +22 02 34.1 18.5   704 – Lincoln Laboratory ETS, New Mexico MPS 48988
2002 02 10.38077 10 54 09.34 +22 02 37.6 18.6   704 – Lincoln Laboratory ETS, New Mexico MPS 48988
2002 03 02.49973 10 31 16.82 +22 49 44.7 19.3   644 – Palomar Mountain/NEAT MPS 51872
2002 03 02.51036 10 31 16.09 +22 49 44.3 20.0   644 – Palomar Mountain/NEAT MPS 51872
2002 03 02.52070 10 31 15.38 +22 49 45.2 19.5   644 – Palomar Mountain/NEAT MPS 51872
2002 03 03.30620 10 30 22.43 +22 50 08.0 18.2 R 699 – Lowell Observatory-LONEOS MPS 51872
2002 03 03.31884 10 30 21.57 +22 50 08.8   699 – Lowell Observatory-LONEOS MPS 51872
2002 03 03.33149 10 30 20.65 +22 50 09.5   699 – Lowell Observatory-LONEOS MPS 51872
2002 03 03.34418 10 30 19.78 +22 50 08.9   699 – Lowell Observatory-LONEOS MPS 51872
2002 03 03.42276 10 30 14.53 +22 50 11.5 19.8   608 – Haleakala-AMOS MPS 51872
2002 03 03.43409 10 30 13.76 +22 50 11.9 19.9   608 – Haleakala-AMOS MPS 51872
2002 03 03.44500 10 30 12.98 +22 50 11.7 20.3   608 – Haleakala-AMOS MPS 51872
2002 03 06.24581 10 27 07.21 +22 50 23.9 19.1   704 – Lincoln Laboratory ETS, New Mexico MPS 51872
2002 03 06.28573 10 27 04.57 +22 50 21.7 18.9   704 – Lincoln Laboratory ETS, New Mexico MPS 51872
2002 03 06.29917 10 27 03.65 +22 50 22.0 19.5   704 – Lincoln Laboratory ETS, New Mexico MPS 51872
2002 03 20.21674 10 13 49.24 +22 27 24.7 19.1   704 – Lincoln Laboratory ETS, New Mexico MPS 54633
2002 03 20.23017 10 13 48.56 +22 27 22.6 19.6   704 – Lincoln Laboratory ETS, New Mexico MPS 54633
2002 03 20.24192 10 13 47.95 +22 27 19.4 18.8   704 – Lincoln Laboratory ETS, New Mexico MPS 54633
2002 03 20.25335 10 13 47.43 +22 27 18.7 19.3   704 – Lincoln Laboratory ETS, New Mexico MPS 54633
2002 03 21.20347 10 13 03.68 +22 24 20.3 19.2   644 – Palomar Mountain/NEAT MPS 51872
2002 03 21.22321 10 13 02.72 +22 24 16.1 18.8   644 – Palomar Mountain/NEAT MPS 51872
2002 03 21.24450 10 13 01.76 +22 24 12.6 19.0   644 – Palomar Mountain/NEAT MPS 51872
2002 04 02.19973 10 06 04.80 +21 33 59.4 19.7   644 – Palomar Mountain/NEAT MPS 54633
2002 04 02.22054 10 06 04.25 +21 33 53.1 19.7   644 – Palomar Mountain/NEAT MPS 54633
2002 04 02.24155 10 06 03.70 +21 33 46.6 19.4   644 – Palomar Mountain/NEAT MPS 54633
2004 07 15.39224 00 58 26.62 -01 43 07.5 19.5   704 – Lincoln Laboratory ETS, New Mexico MPS 112093
2004 07 15.40332 00 58 27.12 -01 43 03.6 20.1   704 – Lincoln Laboratory ETS, New Mexico MPS 112093
2004 07 15.42466 00 58 28.30 -01 42 53.1 20.6   704 – Lincoln Laboratory ETS, New Mexico MPS 112093
2004 07 15.43523 00 58 29.02 -01 42 49.2 20.3   704 – Lincoln Laboratory ETS, New Mexico MPS 112093
2004 07 29.79986 01 10 10.48 +00 01 40.1 18.5 R E12 – Siding Spring Survey MPS 110805
2004 07 29.80938 01 10 10.80 +00 01 43.8 18.6 R E12 – Siding Spring Survey MPS 110805
2004 07 29.81884 01 10 11.22 +00 01 47.2 18.2 R E12 – Siding Spring Survey MPS 110805
2004 07 29.82837 01 10 11.58 +00 01 50.6 18.8 R E12 – Siding Spring Survey MPS 110805
2004 08 09.39091 01 15 50.27 +01 08 32.7 18.8   704 – Lincoln Laboratory ETS, New Mexico MPS 110973
2004 08 09.40056 01 15 50.42 +01 08 37.0 18.9   704 – Lincoln Laboratory ETS, New Mexico MPS 110973
2004 08 09.41012 01 15 50.68 +01 08 39.8 19.4   704 – Lincoln Laboratory ETS, New Mexico MPS 110973
2004 08 09.41963 01 15 50.88 +01 08 44.1 19.5   704 – Lincoln Laboratory ETS, New Mexico MPS 110973
2004 08 09.42913 01 15 51.02 +01 08 47.3 19.1   704 – Lincoln Laboratory ETS, New Mexico MPS 110973
2004 08 10.34125 01 16 12.03 +01 14 09.7 20.2   704 – Lincoln Laboratory ETS, New Mexico MPS 110973
2004 08 10.36178 01 16 12.44 +01 14 17.2 20.6   704 – Lincoln Laboratory ETS, New Mexico MPS 110973
2004 08 10.37217 01 16 12.66 +01 14 21.0 20.0   704 – Lincoln Laboratory ETS, New Mexico MPS 110973
2004 08 11.33785 01 16 33.34 +01 19 56.2 19.7   704 – Lincoln Laboratory ETS, New Mexico MPS 110973
2004 08 11.34775 01 16 33.50 +01 20 00.2 20.1   704 – Lincoln Laboratory ETS, New Mexico MPS 110973
2004 08 11.36760 01 16 33.89 +01 20 06.3 20.0   704 – Lincoln Laboratory ETS, New Mexico MPS 110973
2004 08 15.73617 01 17 45.89 +01 44 29.8 18.9 R E12 – Siding Spring Survey MPS 111780
2004 08 15.74901 01 17 46.01 +01 44 34.5 18.8 R E12 – Siding Spring Survey MPS 111780
2004 08 15.76187 01 17 46.15 +01 44 38.8 18.6 R E12 – Siding Spring Survey MPS 111780
2004 08 15.77470 01 17 46.26 +01 44 42.6 18.4 R E12 – Siding Spring Survey MPS 111780
2004 08 19.71338 01 18 21.18 +02 05 14.3 18.6 R E12 – Siding Spring Survey MPS 111780
2004 08 19.73025 01 18 21.16 +02 05 19.7 18.9 R E12 – Siding Spring Survey MPS 111780
2004 08 19.74711 01 18 21.22 +02 05 24.3 18.7 R E12 – Siding Spring Survey MPS 111780
2004 08 19.76396 01 18 21.28 +02 05 29.7 19.0 R E12 – Siding Spring Survey MPS 111780
